ROS Resources: Documentation | Support | Discussion Forum | Service Status | Q&A answers.ros.org

Packaging and Release Management


Topic Replies Activity
Preparing for Melodic sync 2019-08-12 2 August 14, 2019
Preparing for Kinetic Sync 2019-08-06 6 August 9, 2019
Preparing for Dashing sync and patch release: 2019-08-01 5 August 6, 2019
Preparing for Kinetic Sync 2019-07-22 8 July 30, 2019
Preparing for Melodic sync 2019-07-22 8 July 30, 2019
Preparing for Crystal sync 2019-07-11 2 July 11, 2019
Preparing Kinetic Sync 2019-07-08 5 July 11, 2019
Final Lunar sync 8 July 10, 2019
Preparing for final Bouncy sync 2019-07-11 1 July 8, 2019
Preparing for Melodic sync 2019-06-28 2 July 3, 2019
Preparing for Kinetic Sync 2019-06-24 1 June 24, 2019
Claiming ownership for diagnostics packages in ROS2 1 June 20, 2019
Preparing for Kinetic Sync 2019-06-11 7 June 16, 2019
Preparing for Dashing sync and patch release: 2019-06-14 2 June 14, 2019
Preparing for Melodic sync 2019-05-09 2 May 14, 2019
Preparing for Lunar Sync 2019-05-09 2 May 14, 2019
Preparing for Kinetic Sync 2019-05-08 2 May 10, 2019
ROS 2 Dashing Diademata call for testing and package releases 2 May 10, 2019
Preparing for Indigo Sync 2019-05-08 1 May 8, 2019
Confusion about EOL for Indigo 3 May 8, 2019
Preparing for Kinetic Sync 2019-04-23 2 April 29, 2019
Preparing for Melodic sync 2019-04-18 2 April 24, 2019
Preparing for Indigo Sync 2019-04-23 1 April 24, 2019
Preparing for Crystal sync and patch release: 2019-04-04 4 April 10, 2019
Preparing for Kinetic Sync 2019-04-03 2 April 5, 2019
Preparing for Indigo Sync 2019-04-03 3 April 5, 2019
Pr2_calibration release permissions 4 April 3, 2019
Pr2_navigation maintainer transition 4 April 3, 2019
Preparing for Melodic sync 2019-03-25 2 March 29, 2019
Preparing for Kinetic Sync 2019-03-19 2 March 25, 2019